Weather History for Newport, RI

Change the Weather History Date:

Friday, October 19, 2012

  Actual Average Record
Temperature  
Mean Temperature 60 °F -  
Max Temperature 66 °F 60 °F 72 °F (1963)
Min Temperature 55 °F 45 °F 32 °F (1974)
Degree Days  
Heating Degree Days 4    
Growing Degree Days 10 (Base 50)    
Moisture  
Dew Point 60 °F    
Average Humidity 90    
Maximum Humidity 100    
Minimum Humidity 68    
Precipitation  
Precipitation 0.00 in - - ()
Sea Level Pressure  
Sea Level Pressure 29.86 in    
Wind  
Wind Speed 11 mph (SE)    
Max Wind Speed 20 mph    
Max Gust Speed 31 mph    
Visibility 8 miles    
Events Rain , Thunderstorm    
Averages and records for this station are not official NWS values.
T = Trace of Precipitation, MM = Missing Value Source: NWS Daily Summary

Daily Weather History Graph

Daily Weather History Graph

Search for Another Location

Airport:

Trip Planner

Search our weather history database for the weather conditions in past years. The results will help you decide how hot, cold, wet, or windy it might be!

Date:

Astronomy

Oct. 19, 2012 Rise Set
Actual Time 7:02 AM EDT 5:57 PM EDT
Civil Twilight 6:34 AM EDT 6:25 PM EDT
Nautical Twilight 6:01 AM EDT 6:57 PM EDT
Astronomical Twilight 5:29 AM EDT 7:29 PM EDT
Moon 11:44 AM EDT (10/19) 9:29 PM EDT (10/19)
Length of Visible Light 11h 51m
Length of Day
10h 55m
Waxing Crescent, 23% of the Moon is Illuminated
Oct 19
Waxing Crescent
Oct 21
First Quarter
Oct 29
Full
Nov 6
Last Quarter
Nov 13
New

Hourly Weather History & Observations

Time (EDT) Temp. Dew Point Humidity Pressure Visibility Wind Dir Wind Speed Gust Speed Precip Events Conditions
12:21 AM 55.4 °F 55.4 °F 100% 30.05 in 10.0 mi East 8.1 mph - N/A   Partly Cloudy
12:53 AM 55.9 °F 55.0 °F 97% 30.04 in 10.0 mi ESE 5.8 mph - N/A   Mostly Cloudy
1:53 AM 57.0 °F 55.0 °F 93% 30.04 in 10.0 mi East 6.9 mph - N/A   Overcast
2:53 AM 59.0 °F 55.0 °F 87% 30.03 in 10.0 mi ESE 6.9 mph - N/A   Overcast
3:53 AM 59.0 °F 55.0 °F 87% 30.00 in 10.0 mi ESE 6.9 mph - 0.00 in Rain Light Rain
4:53 AM 59.0 °F 55.0 °F 87% 29.99 in 10.0 mi ESE 6.9 mph - 0.00 in   Overcast
5:53 AM 61.0 °F 57.0 °F 87% 29.99 in 10.0 mi ESE 6.9 mph - N/A   Mostly Cloudy
6:53 AM 62.1 °F 57.9 °F 86% 29.98 in 10.0 mi SE 8.1 mph - N/A   Overcast
7:53 AM 63.0 °F 57.9 °F 84% 29.98 in 10.0 mi SE 10.4 mph 17.3 mph N/A   Overcast
8:53 AM 63.0 °F 57.0 °F 81% 29.98 in 10.0 mi SE 12.7 mph 19.6 mph N/A   Overcast
9:53 AM 64.0 °F 57.0 °F 78% 29.98 in 10.0 mi ESE 13.8 mph 23.0 mph N/A   Overcast
10:22 AM 64.4 °F 55.4 °F 73% 29.97 in 10.0 mi SE 13.8 mph 25.3 mph N/A   Overcast
10:39 AM 64.4 °F 53.6 °F 68% 29.96 in 10.0 mi SE 19.6 mph 27.6 mph N/A   Mostly Cloudy
10:53 AM 64.9 °F 54.0 °F 68% 29.94 in 10.0 mi ESE 16.1 mph 28.8 mph N/A   Partly Cloudy
11:53 AM 64.0 °F 57.0 °F 78% 29.93 in 10.0 mi SE 12.7 mph 26.5 mph 0.00 in Rain Light Rain
12:53 PM 64.9 °F 61.0 °F 87% 29.89 in 10.0 mi SE 15.0 mph 26.5 mph 0.00 in   Overcast
1:29 PM 64.4 °F 60.8 °F 88% 29.87 in 10.0 mi SE 15.0 mph 26.5 mph N/A   Mostly Cloudy
1:40 PM 64.4 °F 62.6 °F 94% 29.87 in 10.0 mi SE 18.4 mph 27.6 mph N/A   Overcast
1:53 PM 66.0 °F 62.1 °F 87% 29.86 in 10.0 mi SE 15.0 mph 26.5 mph N/A   Overcast
2:53 PM 64.9 °F 62.1 °F 90% 29.85 in 10.0 mi SE 12.7 mph 21.9 mph N/A   Overcast
3:53 PM 64.9 °F 62.1 °F 90% 29.82 in 10.0 mi ESE 11.5 mph 19.6 mph N/A   Overcast
4:53 PM 64.9 °F 62.1 °F 90% 29.79 in 9.0 mi SE 11.5 mph 19.6 mph N/A   Overcast
5:25 PM 64.4 °F 62.6 °F 94% 29.78 in 7.0 mi ESE 12.7 mph 20.7 mph 0.00 in Rain Light Rain
5:53 PM 64.9 °F 62.1 °F 90% 29.75 in 7.0 mi SE 13.8 mph 26.5 mph 0.00 in Rain Light Rain
6:29 PM 64.4 °F 62.6 °F 94% 29.75 in 7.0 mi SE 15.0 mph 23.0 mph 0.00 in Rain Light Rain
6:53 PM 64.0 °F 62.1 °F 93% 29.75 in 6.0 mi SE 13.8 mph 26.5 mph 0.00 in Rain Light Rain
7:16 PM 66.2 °F 64.4 °F 94% 29.75 in 8.0 mi SE 19.6 mph 31.1 mph 0.00 in   Overcast
7:53 PM 66.0 °F 64.9 °F 96% 29.75 in 7.0 mi South 16.1 mph 24.2 mph 0.00 in   Overcast
8:04 PM 66.2 °F 64.4 °F 94% 29.76 in 6.0 mi South 13.8 mph - N/A   Overcast
8:24 PM 64.4 °F 64.4 °F 100% 29.76 in 6.0 mi South 13.8 mph 21.9 mph N/A   Overcast
8:53 PM 64.0 °F 63.0 °F 96% 29.76 in 6.0 mi South 11.5 mph 19.6 mph N/A   Mostly Cloudy
9:06 PM 64.4 °F 62.6 °F 94% 29.76 in 6.0 mi South 12.7 mph - N/A   Scattered Clouds
9:42 PM 64.4 °F 62.6 °F 94% 29.76 in 6.0 mi South 9.2 mph - N/A   Scattered Clouds
9:51 PM 64.4 °F 62.6 °F 94% 29.77 in 5.0 mi South 9.2 mph - N/A   Mostly Cloudy
9:53 PM 64.0 °F 62.1 °F 93% 29.76 in 5.0 mi South 9.2 mph - N/A   Mostly Cloudy
10:53 PM 64.9 °F 64.0 °F 97% 29.75 in 6.0 mi South 9.2 mph - N/A   Overcast
11:18 PM 64.4 °F 64.4 °F 100% 29.76 in 4.0 mi South 9.2 mph - N/A   Overcast
11:45 PM 66.2 °F 64.4 °F 94% 29.76 in 2.5 mi South 10.4 mph - N/A   Overcast
11:53 PM 66.0 °F 64.9 °F 96% 29.75 in 2.5 mi South 8.1 mph - N/A   Overcast
11:58 PM 66.2 °F 64.4 °F 94% 29.74 in 1.8 mi South 6.9 mph - N/A Thunderstorm Overcast